World > North America > United States > Pennsylvania > Bethesda

Hourly Bethesda, PA Regional Weather

Feedback E-mail the Weather

Quick WX

Bethesda, PA Weather Maps

°F °C°F °C
Bethesda Weather Map
UTC Time: 8/13/2022, 12:29
Your Time:

Bethesda, PA Regional Weather

Expires:202208131300;;025300
ASUS41 KPHI 131214
RWRPHI

REGIONAL WEATHER ROUNDUP
NATIONAL WEATHER SERVICE MOUNT HOLLY NJ
800 AM EDT SAT AUG 13 2022

NOTE:  "FAIR" INDICATES FEW OR NO CLOUDS BELOW 12,000 FEET WITH NO
SIGNIFICANT WEATHER AND/OR OBSTRUCTIONS TO VISIBILITY.

 * = STATION DOES NOT REPORT PRECIPITATION (E.G. RAIN, SNOW, ETC.) 
        OR FOG.


PAZ043-044-047-054-055-060>062-066>071-131300-
EASTERN PENNSYLVANIA
  
CITY           SKY/WX    TMP DP  RH WIND       PRES   REMARKS
PHILADELPHIA   SUNNY     69  51  52 N6        30.12S                  
6HR MIN TEMP:  65; 6HR MAX TEMP:  71;                                

NORTH PHILA    SUNNY     67  49  52 N8        30.13S                  
BLUE BELL*     SUNNY     64  51  62 CALM      30.14S                  
DOYLESTOWN     SUNNY     65  48  54 N5        30.13R                  
QUAKERTOWN*    SUNNY     64  50  59 N8        30.15S                  
PERKASIE*      FAIR      63  50  63 NE5       30.15S                  
POTTSTOWN      SUNNY     62  49  62 NW6       30.16S                  
LANCASTER      SUNNY     67  47  48 N5        30.16R                  
COATESVILLE    SUNNY     64  50  59 N7        30.16S                  
WEST CHESTER   FAIR      64  48  55 N7        30.15R                  
READING        SUNNY     64  52  64 NW5       30.15R                  
6HR MIN TEMP:  56; 6HR MAX TEMP:  64;                                

ALLENTOWN      SUNNY     61  49  64 NW5       30.15R                  
6HR MIN TEMP:  53; 6HR MAX TEMP:  62;                                

QN CITY/ALNTWN FAIR      61  50  67 CALM      30.17R                  
MOUNT POCONO   SUNNY     55  48  77 NW5       30.17S                  
6HR MIN TEMP:  46; 6HR MAX TEMP:  55;                                

HAZLETON       SUNNY     57  50  77 MISG      30.21S                  
LEHIGHTON      FAIR      55  50  82 CALM      30.17F                  
WILKES BARRE   SUNNY     58  50  75 CALM      30.19R                  

$$

SKY/WX - Weather  TMP - Temperature  DP - Dew Point  RH - Humidity
WIND - Wind Direction/Speed PRES - Barometric Pressure VSB - Visibility
WCI - Wind Chill Index E13G22 Wind - East Wind 13 mph/Gusts of 22 mph

Trending Headlines

Bethesda Radar Loop



Bethesda Quick Facts


National Two Day Weather Forecast


E-mail the Bethesda Weather Forecast

Voice your opinion or tell us about page issues...